Location: Napier
(39.4830°S, 176.9170°E)
Time: 10:16:28
(UTC+13:00)

Cosmos 1733 Rocket - Pass Details

Date: 24 January 2019
Orbit: 605 x 627 km, 82.5° (Epoch: 22 February)

Event Time Altitude Azimuth Distance (km) Brightness Sun altitude
Rises 22:51:34 0° 177° (S) 2,925 7.3 -21.3°
Reaches altitude 10° 22:54:03 10° 166° (SSE) 2,006 6.2 -21.6°
Enters shadow 22:57:44 30° 111° (ESE) 1,111 4.2 -22.0°
